Location: Karaa?a�
(36.7158°N, 30.4165°E)
Time: 09:34:02
(UTC+00:00)

Cosmos 1850 Rocket - Pass Details

Date: 09 April 2020
Orbit: 754 x 786 km, 74.0° (Epoch: 31 May)

Event Time Altitude Azimuth Distance (km) Brightness Sun altitude
Exits shadow 18:44:17 81° 58° (ENE) 767 3.8 -26.1°
Drops below altitude 10° 18:49:16 10° 19° (NNE) 2,283 6.6 -26.9°
Sets 18:51:38 0° 19° (NNE) 3,212 7.4 -27.3°
